TimeMST,TemperatureF,Dew PointF,Humidity,Sea Level PressureIn,VisibilityMPH,Wind Direction,Wind SpeedMPH,Gust SpeedMPH,PrecipitationIn,Events,Conditions,WindDirDegrees,DateUTC
12:58 AM,58.6,33.4,39,29.98,10.0,WNW,2.3,-,N/A,,Clear,290,2012-11-21 07:58:00
1:58 AM,58.3,34.0,40,29.97,10.0,NNW,4.6,-,N/A,,Clear,340,2012-11-21 08:58:00
2:58 AM,58.6,34.0,40,29.97,10.0,NW,4.6,-,N/A,,Clear,320,2012-11-21 09:58:00
3:58 AM,55.9,34.9,45,29.96,10.0,NNW,6.9,-,N/A,,Partly Cloudy,330,2012-11-21 10:58:00
4:58 AM,54.7,33.3,44,29.97,10.0,NNW,6.9,-,N/A,,Clear,340,2012-11-21 11:58:00
5:58 AM,54.0,31.5,42,29.98,10.0,Calm,Calm,-,N/A,,Clear,10,2012-11-21 12:58:00
6:58 AM,52.5,32.5,47,29.99,10.0,NW,5.8,-,N/A,,Clear,310,2012-11-21 13:58:00
7:58 AM,54.1,32.5,44,30.02,10.0,North,5.8,-,N/A,,Clear,350,2012-11-21 14:58:00
8:58 AM,60.8,36.5,40,30.04,10.0,North,4.6,-,N/A,,Clear,10,2012-11-21 15:58:00
9:58 AM,66.4,35.2,32,30.05,10.0,NE,2.3,-,N/A,,Clear,40,2012-11-21 16:58:00
10:58 AM,70.5,35.4,28,30.04,10.0,NE,3.5,-,N/A,,Clear,50,2012-11-21 17:58:00
11:58 AM,75.2,35.8,24,30.00,10.0,Variable,1.2,-,N/A,,Clear,0,2012-11-21 18:58:00
12:58 PM,77.4,36.1,23,29.97,10.0,Calm,Calm,-,N/A,,Clear,0,2012-11-21 19:58:00
1:58 PM,79.2,36.5,22,29.95,10.0,South,2.3,-,N/A,,Clear,190,2012-11-21 20:58:00
2:58 PM,79.9,37.0,21,29.93,10.0,Variable,3.5,-,N/A,,Clear,0,2012-11-21 21:58:00
3:58 PM,79.5,37.8,22,29.92,10.0,WSW,5.8,-,N/A,,Clear,240,2012-11-21 22:58:00
4:58 PM,77.9,37.8,24,29.92,10.0,SSW,8.1,-,N/A,,Clear,200,2012-11-21 23:58:00
5:58 PM,71.6,38.1,30,29.94,10.0,SW,4.6,-,N/A,,Clear,220,2012-11-22 00:58:00
6:58 PM,68.5,37.8,32,29.96,10.0,Calm,Calm,-,N/A,,Clear,0,2012-11-22 01:58:00
7:58 PM,63.7,41.5,44,29.96,10.0,Calm,Calm,-,N/A,,Clear,0,2012-11-22 02:58:00
8:58 PM,59.9,40.6,49,29.97,10.0,NNE,5.8,-,N/A,,Clear,30,2012-11-22 03:58:00
9:58 PM,57.4,39.9,52,29.97,10.0,NNW,4.6,-,N/A,,Clear,340,2012-11-22 04:58:00
10:58 PM,59.4,34.5,39,29.97,10.0,North,5.8,-,N/A,,Clear,360,2012-11-22 05:58:00
11:58 PM,57.2,32.4,39,29.98,10.0,NE,4.6,-,N/A,,Clear,40,2012-11-22 06:58:00